Regional Weather Roundup
Issued by NWS State College, PA

Home | Current Version | Previous Version | Text Only | Print | Product List | Glossary On
Versions: 1 2 3 4 5 6 7 8 9 10 11 12 13 14 15 16 17 18 19 20 21 22 23 24 25 26 27 28 29 30 31 32 33 34 35 36 37 38 39 40 41 42 43 44 45 46 47 48 49 50
000
ASUS41 KCTP 220610
RWRCTP

REGIONAL WEATHER ROUNDUP
NATIONAL WEATHER SERVICE STATE COLLEGE PA
200 AM EDT TUE AUG 22 2017

Note: "fair" indicates few or no clouds below 12,000 feet with no
significant weather and/or obstructions to visibility.

* = STATION THAT DOES NOT REPORT PRECIPITATION /E.G. RAIN...SNOW...ETC/
    THUNDER OR FOG.

PAZ002>004-007>009-013>016-020>023-029>032-220700-
WESTERN PENNSYLVANIA

CITY           SKY/WX    TMP DP  RH WIND       PRES   REMARKS
ERIE           PTCLDY    78  70  76 S10       29.99F
MEADVILLE      PTCLDY    73  71  93 S7        30.06F
FRANKLIN*      PTCLDY    72  66  83 SW7       30.08F
NEW CASTLE     FAIR      74  71  91 CALM      30.06F
BEAVER COUNTY  NOT AVBL
BUTLER*        CLOUDY    73  70  88 S5        30.08F
PITTSBURGH INT CLOUDY    73  70  90 S5        30.07F
PITTSBURGH     PTCLDY    73  68  84 S7        30.08F
INDIANA*       CLEAR     70  68  94 CALM      30.13F
LATROBE        PTCLDY    68  68 100 CALM      30.10F
WASHINGTON CO* PTCLDY    68  66  94 CALM      30.09F
$$

PAZ004>006-010>012-017>019-024>028-033>037-041-042-045-046-049>053-220700-
CENTRAL PENNSYLVANIA

CITY           SKY/WX    TMP DP  RH WIND       PRES   REMARKS
BRADFORD       PTCLDY    70  70 100 CALM      30.11F FOG
DUBOIS         CLEAR     70  67  90 SW5       30.10F FOG
CLEARFIELD     CLEAR     67  67 100 CALM      30.11F FOG
JOHNSTOWN      CLEAR     71  67  87 SW7       30.16F
ALTOONA        CLEAR     67  66  97 W3        30.13F
STATE COLLEGE  CLEAR     69  67  95 CALM      30.10F
WILLIAMSPORT   CLOUDY    70  69  97 CALM      30.06F
SELINSGROVE    PTCLDY    68  68 100 CALM      30.08F FOG
FT INDIANTOWN  CLEAR     68  68 100 CALM      30.09F FOG
CAPITAL CITY   CLEAR     73  69  87 E5        30.08F
HARRISBURG     PTCLDY    73  72  96 SE6       30.08F
YORK           CLEAR     71  70  96 SE3       30.09F
$$

PAZ038>040-043-044-047-048-054-055-060>062-067>071-220700-
EASTERN PENNSYLVANIA

CITY           SKY/WX    TMP DP  RH WIND       PRES   REMARKS
SCRANTON       CLEAR     67  66  97 E3        30.09F
MOUNT POCONO   PTCLDY    66  66 100 NW3       30.14F
ALLENTOWN      CLEAR     70  67  90 SW3       30.09F FOG
QUAKERTOWN*    PTCLDY    72  72 100 CALM      30.11S
READING        CLEAR     70  70 100 CALM      30.08F
LANCASTER      CLEAR     69  69 100 CALM      30.09F FOG
COATESVILLE    CLEAR     72  70  94 CALM      30.12F
POTTSTOWN      CLEAR     69  69 100 CALM      30.11F
BLUE BELL      MOCLDY    73  72  94 SW5       30.10S
DOYLESTOWN     PTCLDY    72  71  97 CALM      30.08F
WILLOW GROVE   NOT AVBL
NORTH PHILA    MOCLDY    79  74  84 S5        30.09F
PHILADELPHIA   CLOUDY    77  73  87 S7        30.09F
$$




USA.gov is the U.S. government's official web portal to all federal, state and local government web resources and services.